This demonstration page uses our WeatherBlox Daily Observations layout. Learn more.

41.86663, -103.66717

Hourly Observations for August 7, 2020

Temp ( °F °C ) Dew Point ( °F °C ) Humidity (%) Winds ( mph kmh ) Pressure ( in mb ) Visibility ( mi km ) Precip ( " mm )
12:53 am 00:53 Clear 67 19.4 53 11.7 61 61 N 5 7 29.77 1008 10 16.0934 0 0
1:53 am 01:53 Clear 70 21.1 53 11.7 55 55 SSE 16 26 29.72 1006 10 16.0934 0 0
2:53 am 02:53 Clear 64 17.8 57 13.9 78 78 E 8 13 29.73 1007 10 16.0934 0 0
3:53 am 03:53 Clear 64 17.8 60 15.6 87 87 E 8 13 29.74 1007 10 16.0934 0 0
4:53 am 04:53 Clear 61 16.1 59 15 93 93 E 8 13 29.74 1007 10 16.0934 0 0
5:53 am 05:53 Clear 60 15.6 57 13.9 90 90 ENE 5 7 29.74 1007 10 16.0934 0 0
6:53 am 06:53 Sunny 63 17.2 60 15.6 90 90 E 5 7 29.73 1007 9 14.48406 0 0
7:53 am 07:53 Sunny 70 21.1 60 15.6 71 71 E 6 9 29.74 1007 10 16.0934 0 0
8:53 am 08:53 Sunny 77 25 57 13.9 50 50 ENE 5 7 29.74 1007 10 16.0934 0 0
9:53 am 09:53 Sunny 84 28.9 54 12.2 36 36 NE 5 7 29.72 1007 10 16.0934 0 0
10:53 am 10:53 Sunny 92 33.3 38 3.3 15 15 W 13 20 29.72 1007 10 16.0934 0 0
11:53 am 11:53 Sunny 94 34.4 44 6.7 18 18 NNW 10 17 29.72 1006 10 16.0934 0 0
12:53 pm 12:53 Sunny 97 36.1 44 6.7 16 16 NNW 9 15 29.7 1006 10 16.0934 0 0
1:53 pm 13:53 Sunny 101 38.3 37 2.8 11 11 NNW 9 15 29.68 1005 10 16.0934 0 0
2:53 pm 14:53 Sunny 103 39.4 28 -2.2 7 7 WNW 13 20 29.69 1005 10 16.0934 0 0
3:53 pm 15:53 Sunny 103 39.4 24 -4.4 6 6 W 12 19 29.69 1006 10 16.0934 0 0
4:53 pm 16:53 Sunny 102 38.9 23 -5 6 6 W 9 15 29.7 1006 10 16.0934 0 0
5:53 pm 17:53 Sunny 101 38.3 25 -3.9 7 7 W 8 13 29.69 1006 10 16.0934 0 0
6:53 pm 18:53 Sunny 99 37.2 28 -2.2 8 8 W 3 6 29.69 1006 10 16.0934 0 0
7:53 pm 19:53 Sunny 82 27.8 57 13.9 42 42 ESE 3 6 29.72 1006 10 16.0934 0 0
8:53 pm 20:53 Clear 79 26.1 47 8.3 32 32 S 6 9 29.72 1007 10 16.0934 0 0
9:53 pm 21:53 Clear 77 25 44 6.7 31 31 ESE 5 7 29.72 1007 10 16.0934 0 0
10:53 pm 22:53 Clear 79 26.1 53 11.7 41 41 NE 14 22 29.73 1007 10 16.0934 0 0
11:53 pm 23:53 Clear 73 22.8 58 14.4 59 59 SE 5 7 29.76 1008 10 16.0934 0 0

Powered by AerisWeather